一网星座-0206星 (ONEWEB-0206 )

导读

ONEWEB-0206卫星由英国(GB)于2021年4月25日08:00发射升空,是OneWeb星座组网的卫星成员。OneWeb星座旨在构建全球低轨卫星互联网系统,为全球偏远地区、海上航空等场景提供宽带网络接入服务,该卫星入轨后承担星座通信链路组网相关任务,推动全球互联网覆盖建设。

Basic Information
目录编号:
48227
目录名称:
ONEWEB-0206
国际标识:
2021-031T
轨道中心:
EARTH
卫星名称:
一网星座-0206星
卫星全名:
一网星座-0206星 (ONEWEB-0206 )
卫星状态:
在轨 (已飞行1969 天)
发射日期:
2021-04-25 UTC
国别 :
英国 (GB)
星等 :
--
This satellite is enrolled in the Space Conjunction Data Service (SCDS) and the current flight risk assessment level is: No High Risk
Orbit Information
数据来源 国际轨道数据 AOE轨道数据
星历时间 2026-09-15T08:07:39+0800
23小时前
查看轨道信息
2026-09-15T23:00:00+0800
8小时前
查看轨道信息
半长轴 7583.93km 7583.92km
偏心率 0.0002056 0.0002095
轨道倾角 87.890° 87.891°
近地点辐角 91.001° 94.210°
升交点赤经 271.788° 271.662°
平近点角 269.136° 316.732°
近地点 1204.233km 1204.194km
远地点 1207.353km 1207.372km
周期 109.547分钟 109.547分钟
每日圈数 13.145022 13.145048
Detailed Information
平衡模式:
三轴稳定
覆盖范围:
全球
运营商:
一网卫星公司
运营商所在国:
英国
制造商(研发单位):
一网卫星公司
制造商所在国:
英国
使用方式:
暂无
Satellite Introduction
OneWeb卫星网络由648颗重约125公斤的微型卫星组成,运行在1200公里的轨道上。 每颗卫星都能够提供至少每秒8千兆位的吞吐量,以使用其高吞吐量的Ku频段有效载荷为家庭和移动平台提供互联网接入。该卫星仍在工作。
2D Orbit Map
3D Orbit Map
Orbit Altitude Analysis Chart
Orbit Inclination Analysis Chart
Orbit Comprehensive Analysis Chart
View Comprehensive Chart
Miss Distance Evolution Trend with All Objects Subscribe to Flight Safety Assessment
Collision Probability Evolution Trend with All Objects Subscribe to Flight Safety Assessment